Printer-friendly version

IAU Minor Planet Center

Minor Planet Center

(63) Ausonia

Orbital Elements

The following orbital elements are taken from MPC 35405:
   (63) Ausonia
Epoch 2002 Nov. 22.0 TT = JDT 2452600.5                 Goffin
M 344.24657              (2000.0)            P               Q
n   0.26585304     Peri.  296.00919     +0.07091197     +0.99676429
a   2.3953830      Node   337.95841     -0.87533264     +0.04398966
e   0.1260508      Incl.    5.78823     -0.47829306     +0.06727453
P   3.71           H    7.55          G   0.25           U   0
From 940 observations at 76 oppositions, 1861-1998, mean residual 0".53.
An explanation of the orbital elements is available.

These orbital elements are also available in forms suitable for loading into a number of popular planetarium-type software programs.


Ephemeris

The following ephemeris is at intervals of five days. A daily ephemeris covering the same time interval is also available.

Date    TT    R. A. (2000) Decl.     Delta      r     Elong.  Phase     V
 
2003 06 20    23 33.87   -04 34.0    1.828    2.183    96.0    27.6    11.6
2003 06 25    23 38.28   -03 56.3    1.776    2.188    99.6    27.3    11.6
2003 06 30    23 42.17   -03 21.2    1.726    2.194   103.2    26.8    11.5
2003 07 05    23 45.50   -02 49.1    1.676    2.200   107.0    26.2    11.4
2003 07 10    23 48.22   -02 20.1    1.627    2.206   110.9    25.5    11.4
2003 07 15    23 50.30   -01 54.4    1.580    2.212   115.1    24.6    11.3
2003 07 20    23 51.71   -01 32.3    1.535    2.218   119.4    23.5    11.2
2003 07 25    23 52.40   -01 13.9    1.492    2.224   123.9    22.3    11.1
2003 07 30    23 52.35   -00 59.6    1.451    2.230   128.6    20.9    11.0
2003 08 04    23 51.53   -00 49.3    1.414    2.236   133.5    19.2    10.9
2003 08 09    23 49.96   -00 43.3    1.380    2.243   138.6    17.4    10.8
2003 08 14    23 47.64   -00 41.3    1.350    2.249   143.9    15.4    10.7
2003 08 19    23 44.62   -00 43.3    1.325    2.256   149.4    13.2    10.6
2003 08 24    23 40.97   -00 49.1    1.305    2.262   155.1    10.9    10.5
2003 08 29    23 36.76   -00 58.3    1.291    2.269   160.9     8.4    10.4
2003 09 03    23 32.13   -01 10.4    1.282    2.276   166.8     5.8    10.3
2003 09 08    23 27.24   -01 24.5    1.280    2.283   172.7     3.2    10.2
2003 09 13    23 22.24   -01 40.0    1.284    2.290   177.6     1.0    10.0
2003 09 18    23 17.29   -01 56.0    1.294    2.296   174.2     2.5    10.2
2003 09 23    23 12.55   -02 11.6    1.311    2.303   168.4     5.0    10.3
2003 09 28    23 08.19   -02 26.2    1.335    2.310   162.5     7.5    10.5
2003 10 03    23 04.33   -02 39.0    1.364    2.317   156.6     9.9    10.6
2003 10 08    23 01.07   -02 49.3    1.400    2.324   150.9    12.1    10.7
2003 10 13    22 58.50   -02 56.7    1.440    2.331   145.4    14.1    10.9
2003 10 18    22 56.64   -03 01.0    1.486    2.338   140.0    15.9    11.0
2003 10 23    22 55.51   -03 01.9    1.536    2.346   134.8    17.5    11.1
2003 10 28    22 55.13   -02 59.3    1.590    2.353   129.7    19.0    11.3
2003 11 02    22 55.48   -02 53.1    1.648    2.360   124.8    20.2    11.4
2003 11 07    22 56.53   -02 43.4    1.708    2.367   120.2    21.2    11.5
2003 11 12    22 58.24   -02 30.3    1.772    2.374   115.6    22.1    11.6
2003 11 17    23 00.55   -02 14.0    1.837    2.381   111.2    22.8    11.7
2003 11 22    23 03.44   -01 54.5    1.904    2.388   107.0    23.3    11.8
2003 11 27    23 06.86   -01 32.1    1.973    2.395   102.9    23.7    11.9

Back to Bright Minor Planets

Astronomical Headlines Index


Valid HTML 4.01!